Cloud_Cover
80 100 70 34 5 28 5 8 84 90 24 5 47 5 5 5 5 0 0 0 0 0 0 4 5 5 5 1 6 5 0 0 5 5 5 5 0 1 0 0 0 0 0 0
78 90 92 12 49 48 59 19 52 61 47 15 5 5 5 5 2 2 5 5 6 57 6 5 27 49 7 9 6 9 5 5 5 5 1 0 4 5 5 5 5 5 5 5
100 72 37 88 83 61 64 35 84 86 56 38 11 95 56 5 4 5 24 18 82 38 5 5 5 5 8 39 98 78 5 4 6 7 5 6 5 5 3 5 5 23 24 49
100 100 90 95 41 5 5 5 18 33 42 13 3 100 100 43 5 26 60 89 51 21 5 5 5 5 5 6 73 49 5 45 99 95 8 10 5 1 4 5 5 5 80 100
90 83 68 39 5 5 5 5 5 5 5 49 5 96 100 48 91 100 99 99 60 15 5 5 5 5 7 5 43 81 100 98 34 5 5 5 5 0 2 50 99 100 100 100
69 64 83 32 5 5 5 5 5 5 5 6 8 6 100 100 98 78 100 45 8 5 5 5 5 5 23 47 55 47 23 18 5 2 4 1 4 2 0 0 6 50 100 100
79 56 10 5 5 5 5 3 2 5 5 5 16 60 100 100 85 53 19 7 5 5 5 5 9 5 8 9 23 5 5 5 1 0 0 0 0 0 0 0 0 5 5 20
32 5 43 8 5 5 5 5 4 5 5 14 6 56 98 100 89 49 38 16 5 5 52 5 5 5 5 8 5 5 4 5 6 0 0 0 0 0 0 0 0 2 0 4
26 62 68 9 5 5 5 5 5 3 5 5 10 5 53 23 5 5 5 5 5 5 8 51 47 53 95 88 26 52 4 5 0 0 0 0 0 0 2 5 5 0 0 0
73 84 99 9 5 5 5 5 5 2 4 2 5 5 26 5 17 24 5 27 47 100 100 100 100 100 98 10 5 4 2 5 3 3 0 0 0 0 0 0 0 0 0 3
72 88 100 96 97 78 55 31 5 5 5 5 5 4 5 8 18 42 92 100 100 100 100 87 96 61 30 5 5 5 10 9 5 4 1 0 0 0 0 0 0 0 2 5
80 61 100 100 100 100 97 90 79 5 5 47 5 72 8 12 42 100 100 100 100 100 60 10 5 5 5 5 19 55 6 4 5 0 0 0 0 0 0 0 5 5 5 5
100 100 100 100 100 100 100 98 40 36 9 37 72 76 12 85 100 100 97 35 14 9 5 5 5 5 64 38 15 12 5 5 5 0 0 0 0 0 5 5 5 5 12 67
100 100 100 94 6 5 11 100 97 76 100 100 100 42 5 5 76 40 5 5 3 2 5 5 5 5 5 5 5 4 7 22 5 5 0 0 0 5 5 5 5 34 78 100
100 62 47 52 6 5 19 95 94 15 49 42 100 100 76 77 5 5 3 4 3 5 5 5 4 0 0 1 83 98 6 5 5 5 2 4 5 5 5 5 16 82 100 100
100 100 88 5 6 5 14 100 85 65 43 5 13 98 44 5 5 4 4 5 5 5 5 5 5 1 2 35 6 19 59 15 5 4 5 4 5 5 5 39 100 100 100 100
100 100 75 5 5 5 5 13 33 74 100 99 63 100 40 22 32 49 46 5 5 5 5 5 5 5 5 6 79 81 28 5 5 4 5 5 5 12 68 100 100 100 100 100
100 100 100 31 26 7 21 93 56 100 100 100 100 85 76 80 85 100 49 5 7 44 5 26 5 5 8 86 84 16 5 5 5 5 5 5 31 99 100 100 100 100 100 100
100 100 100 67 27 42 5 46 100 100 26 100 94 36 79 87 97 100 37 48 63 23 42 6 5 20 41 93 54 16 5 5 5 5 5 51 99 100 100 100 100 100 100 100
100 100 100 100 100 60 66 100 100 96 81 89 69 56 100 100 98 77 100 78 76 23 28 12 24 25 10 98 81 5 5 5 5 8 87 99 100 100 100 100 100 100 100 100
100 100 100 100 100 60 100 95 84 54 26 44 89 100 100 100 92 100 99 72 9 66 78 74 100 100 10 54 4 5 5 5 5 75 100 100 100 100 100 100 100 100 100 100
100 100 100 100 100 75 33 55 68 91 100 100 100 100 100 100 100 81 99 61 77 100 98 99 100 99 21 4 4 5 5 5 20 100 100 100 100 100 100 100 100 100 100 100
98 98 100 100 100 100 92 96 100 100 100 100 100 100 100 100 100 100 100 100 100 100 100 100 22 18 5 0 3 5 5 14 100 100 100 100 100 100 100 100 100 100 100 100
100 100 100 100 100 100 100 100 100 100 100 100 100 100 100 100 100 100 100 100 100 100 100 95 5 5 5 1 5 5 5 65 100 100 100 100 100 100 86 100 100 100 100 100
100 100 100 100 100 100 100 100 100 100 100 100 100 100 100 100 100 100 100 100 100 100 5 4 5 5 5 5 5 5 5 92 100 100 100 100 100 100 100 100 100 100 100 100
100 100 100 100 100 100 100 100 100 100 100 100 100 100 100 100 100 100 100 100 64 86 5 5 5 5 5 5 5 5 5 99 100 100 100 100 100 100 100 100 100 100 100 100